iso_date,epoch_date,Year,Hour,Min,DOY,POS_DOY,Lat,Lon,BP,Ts,Ta,has_bp,has_ts,has_ta,BuoyID,Buoy_Type,Buoy_Owner,Logistics,Hemisphere
2019-10-07T03:00:25Z,1570417226,2019,3,0,280.1253,280.1253,84.9969,135.0494,-999.00,-999.00,-999.0,no,no,no,90094,ITP,WHOI,MOSAiC,North
2019-10-07T04:00:28Z,1570420829,2019,4,0,280.167,280.167,84.9955,135.0867,-999.00,-999.00,-999.0,no,no,no,90094,ITP,WHOI,MOSAiC,North
2019-10-07T05:00:31Z,1570424432,2019,5,0,280.2087,280.2087,84.9937,135.125,-999.00,-999.00,-999.0,no,no,no,90094,ITP,WHOI,MOSAiC,North
2019-10-07T06:00:25Z,1570428026,2019,6,0,280.2503,280.2503,84.9917,135.164,-999.00,-999.00,-999.0,no,no,no,90094,ITP,WHOI,MOSAiC,North
2019-10-07T07:00:02Z,1570431603,2019,7,0,280.2917,280.2917,84.9895,135.2021,-999.00,-999.00,-999.0,no,no,no,90094,ITP,WHOI,MOSAiC,North
2019-10-07T08:00:31Z,1570435232,2019,8,0,280.3337,280.3337,84.9871,135.2367,-999.00,-999.00,-999.0,no,no,no,90094,ITP,WHOI,MOSAiC,North
2019-10-07T09:00:08Z,1570438809,2019,9,0,280.3751,280.3751,84.9847,135.2702,-999.00,-999.00,-999.0,no,no,no,90094,ITP,WHOI,MOSAiC,North
2019-10-07T10:00:28Z,1570442429,2019,10,0,280.417,280.417,84.9824,135.3065,-999.00,-999.00,-999.0,no,no,no,90094,ITP,WHOI,MOSAiC,North
2019-10-07T11:00:05Z,1570446006,2019,11,0,280.4584,280.4584,84.9798,135.3499,-999.00,-999.00,-999.0,no,no,no,90094,ITP,WHOI,MOSAiC,North
2019-10-07T12:00:25Z,1570449626,2019,12,0,280.5003,280.5003,84.9772,135.4065,-999.00,-999.00,-999.0,no,no,no,90094,ITP,WHOI,MOSAiC,North
2019-10-07T13:00:02Z,1570453203,2019,13,0,280.5417,280.5417,84.9744,135.4623,-999.00,-999.00,-999.0,no,no,no,90094,ITP,WHOI,MOSAiC,North
2019-10-07T14:00:31Z,1570456832,2019,14,0,280.5837,280.5837,84.9717,135.5223,-999.00,-999.00,-999.0,no,no,no,90094,ITP,WHOI,MOSAiC,North
2019-10-07T15:00:00Z,1570460400,2019,15,0,280.625,280.625,84.9686,135.5832,-999.00,-999.00,-999.0,no,no,no,90094,ITP,WHOI,MOSAiC,North
2019-10-07T16:00:54Z,1570464055,2019,16,0,280.6673,280.6673,84.9649,135.6472,-999.00,-999.00,-999.0,no,no,no,90094,ITP,WHOI,MOSAiC,North
2019-10-07T17:00:05Z,1570467606,2019,17,0,280.7084,280.7084,84.9609,135.7064,-999.00,-999.00,-999.0,no,no,no,90094,ITP,WHOI,MOSAiC,North
2019-10-07T18:00:25Z,1570471226,2019,18,0,280.7503,280.7503,84.9569,135.7651,-999.00,-999.00,-999.0,no,no,no,90094,ITP,WHOI,MOSAiC,North
2019-10-07T19:00:02Z,1570474803,2019,19,0,280.7917,280.7917,84.9528,135.8249,-999.00,-999.00,-999.0,no,no,no,90094,ITP,WHOI,MOSAiC,North
2019-10-07T20:00:05Z,1570478406,2019,20,0,280.8334,280.8334,84.9489,135.8834,-999.00,-999.00,-999.0,no,no,no,90094,ITP,WHOI,MOSAiC,North
2019-10-07T21:00:25Z,1570482026,2019,21,0,280.8753,280.8753,84.9456,135.9456,-999.00,-999.00,-999.0,no,no,no,90094,ITP,WHOI,MOSAiC,North
2019-10-07T22:00:28Z,1570485629,2019,22,0,280.917,280.917,84.9426,136.0183,-999.00,-999.00,-999.0,no,no,no,90094,ITP,WHOI,MOSAiC,North
2019-10-07T23:00:05Z,1570489206,2019,23,0,280.9584,280.9584,84.9392,136.1049,-999.00,-999.00,-999.0,no,no,no,90094,ITP,WHOI,MOSAiC,North
2019-10-08T00:00:25Z,1570492826,2019,0,0,281.0003,281.0003,84.9354,136.1996,-999.00,-999.00,-999.0,no,no,no,90094,ITP,WHOI,MOSAiC,North
2019-10-08T01:09:33Z,1570496973,2019,1,9,281.0483,281.0483,84.9307,136.3141,-999.00,-999.00,-999.0,no,no,no,90094,ITP,WHOI,MOSAiC,North
2019-10-08T02:00:31Z,1570500032,2019,2,0,281.0837,281.0837,84.927,136.3999,-999.00,-999.00,-999.0,no,no,no,90094,ITP,WHOI,MOSAiC,North
2019-10-08T03:00:08Z,1570503609,2019,3,0,281.1251,281.1251,84.9222,136.5007,-999.00,-999.00,-999.0,no,no,no,90094,ITP,WHOI,MOSAiC,North
2019-10-08T04:02:47Z,1570507367,2019,4,2,281.1686,281.1686,84.9168,136.6007,-999.00,-999.00,-999.0,no,no,no,90094,ITP,WHOI,MOSAiC,North
2019-10-08T05:00:05Z,1570510806,2019,5,0,281.2084,281.2084,84.9115,136.6863,-999.00,-999.00,-999.0,no,no,no,90094,ITP,WHOI,MOSAiC,North
2019-10-08T06:00:25Z,1570514426,2019,6,0,281.2503,281.2503,84.9115,136.6863,-999.00,-999.00,-999.0,no,no,no,90094,ITP,WHOI,MOSAiC,North
2019-10-08T07:00:02Z,1570518003,2019,7,0,281.2917,281.2917,84.8995,136.8368,-999.00,-999.00,-999.0,no,no,no,90094,ITP,WHOI,MOSAiC,North
2019-10-08T08:00:31Z,1570521632,2019,8,0,281.3337,281.3337,84.8932,136.8917,-999.00,-999.00,-999.0,no,no,no,90094,ITP,WHOI,MOSAiC,North
2019-10-08T09:00:08Z,1570525209,2019,9,0,281.3751,281.3751,84.8871,136.9327,-999.00,-999.00,-999.0,no,no,no,90094,ITP,WHOI,MOSAiC,North
2019-10-08T10:00:28Z,1570528829,2019,10,0,281.417,281.417,84.8812,136.9603,-999.00,-999.00,-999.0,no,no,no,90094,ITP,WHOI,MOSAiC,North
2019-10-08T11:00:31Z,1570532432,2019,11,0,281.4587,281.4587,84.875,136.9727,-999.00,-999.00,-999.0,no,no,no,90094,ITP,WHOI,MOSAiC,North
2019-10-08T12:00:08Z,1570536009,2019,12,0,281.5001,281.5001,84.8689,136.9757,-999.00,-999.00,-999.0,no,no,no,90094,ITP,WHOI,MOSAiC,North
2019-10-08T13:00:28Z,1570539629,2019,13,0,281.542,281.542,84.8635,136.9719,-999.00,-999.00,-999.0,no,no,no,90094,ITP,WHOI,MOSAiC,North
2019-10-08T14:00:05Z,1570543206,2019,14,0,281.5834,281.5834,84.8586,136.9671,-999.00,-999.00,-999.0,no,no,no,90094,ITP,WHOI,MOSAiC,North
2019-10-08T15:00:25Z,1570546826,2019,15,0,281.6253,281.6253,84.8542,136.9598,-999.00,-999.00,-999.0,no,no,no,90094,ITP,WHOI,MOSAiC,North
2019-10-08T16:00:54Z,1570550455,2019,16,0,281.6673,281.6673,84.8506,136.9552,-999.00,-999.00,-999.0,no,no,no,90094,ITP,WHOI,MOSAiC,North
2019-10-08T17:00:31Z,1570554032,2019,17,0,281.7087,281.7087,84.8473,136.9524,-999.00,-999.00,-999.0,no,no,no,90094,ITP,WHOI,MOSAiC,North
2019-10-08T18:00:08Z,1570557609,2019,18,0,281.7501,281.7501,84.8439,136.9516,-999.00,-999.00,-999.0,no,no,no,90094,ITP,WHOI,MOSAiC,North
2019-10-08T19:00:28Z,1570561229,2019,19,0,281.792,281.792,84.8402,136.9493,-999.00,-999.00,-999.0,no,no,no,90094,ITP,WHOI,MOSAiC,North
2019-10-08T20:00:05Z,1570564806,2019,20,0,281.8334,281.8334,84.8363,136.9425,-999.00,-999.00,-999.0,no,no,no,90094,ITP,WHOI,MOSAiC,North
2019-10-08T21:00:25Z,1570568426,2019,21,0,281.8753,281.8753,84.8325,136.9296,-999.00,-999.00,-999.0,no,no,no,90094,ITP,WHOI,MOSAiC,North
2019-10-08T22:01:29Z,1570572089,2019,22,1,281.9177,281.9177,84.8291,136.9125,-999.00,-999.00,-999.0,no,no,no,90094,ITP,WHOI,MOSAiC,North
2019-10-08T23:00:05Z,1570575606,2019,23,0,281.9584,281.9584,84.8262,136.8903,-999.00,-999.00,-999.0,no,no,no,90094,ITP,WHOI,MOSAiC,North
2019-10-09T00:00:25Z,1570579226,2019,0,0,282.0003,282.0003,84.8242,136.8632,-999.00,-999.00,-999.0,no,no,no,90094,ITP,WHOI,MOSAiC,North
2019-10-09T01:00:02Z,1570582803,2019,1,0,282.0417,282.0417,84.8227,136.8362,-999.00,-999.00,-999.0,no,no,no,90094,ITP,WHOI,MOSAiC,North
2019-10-09T02:00:31Z,1570586432,2019,2,0,282.0837,282.0837,84.8216,136.8098,-999.00,-999.00,-999.0,no,no,no,90094,ITP,WHOI,MOSAiC,North
2019-10-09T03:00:08Z,1570590009,2019,3,0,282.1251,282.1251,84.8213,136.7877,-999.00,-999.00,-999.0,no,no,no,90094,ITP,WHOI,MOSAiC,North
2019-10-09T04:00:54Z,1570593655,2019,4,0,282.1673,282.1673,84.8216,136.7718,-999.00,-999.00,-999.0,no,no,no,90094,ITP,WHOI,MOSAiC,North
2019-10-09T05:00:05Z,1570597206,2019,5,0,282.2084,282.2084,84.8218,136.7617,-999.00,-999.00,-999.0,no,no,no,90094,ITP,WHOI,MOSAiC,North
2019-10-09T06:00:25Z,1570600826,2019,6,0,282.2503,282.2503,84.8217,136.7542,-999.00,-999.00,-999.0,no,no,no,90094,ITP,WHOI,MOSAiC,North
2019-10-09T07:02:55Z,1570604576,2019,7,2,282.2937,282.2937,84.821,136.7468,-999.00,-999.00,-999.0,no,no,no,90094,ITP,WHOI,MOSAiC,North
2019-10-09T08:00:05Z,1570608006,2019,8,0,282.3334,282.3334,84.8198,136.7383,-999.00,-999.00,-999.0,no,no,no,90094,ITP,WHOI,MOSAiC,North
2019-10-09T09:00:25Z,1570611626,2019,9,0,282.3753,282.3753,84.8183,136.727,-999.00,-999.00,-999.0,no,no,no,90094,ITP,WHOI,MOSAiC,North
2019-10-09T10:01:29Z,1570615289,2019,10,1,282.4177,282.4177,84.8171,136.7164,-999.00,-999.00,-999.0,no,no,no,90094,ITP,WHOI,MOSAiC,North
2019-10-09T11:00:31Z,1570618832,2019,11,0,282.4587,282.4587,84.8161,136.6959,-999.00,-999.00,-999.0,no,no,no,90094,ITP,WHOI,MOSAiC,North
2019-10-09T12:00:08Z,1570622409,2019,12,0,282.5001,282.5001,84.8155,136.6813,-999.00,-999.00,-999.0,no,no,no,90094,ITP,WHOI,MOSAiC,North
2019-10-09T13:02:21Z,1570626141,2019,13,2,282.5433,282.5433,84.8151,136.6673,-999.00,-999.00,-999.0,no,no,no,90094,ITP,WHOI,MOSAiC,North
2019-10-09T14:00:31Z,1570629632,2019,14,0,282.5837,282.5837,84.8151,136.6564,-999.00,-999.00,-999.0,no,no,no,90094,ITP,WHOI,MOSAiC,North
2019-10-09T15:00:00Z,1570633200,2019,15,0,282.625,282.625,84.8156,136.6481,-999.00,-999.00,-999.0,no,no,no,90094,ITP,WHOI,MOSAiC,North
2019-10-09T16:03:47Z,1570637028,2019,16,3,282.6693,282.6693,84.8166,136.6409,-999.00,-999.00,-999.0,no,no,no,90094,ITP,WHOI,MOSAiC,North
2019-10-09T17:00:05Z,1570640406,2019,17,0,282.7084,282.7084,84.8177,136.6345,-999.00,-999.00,-999.0,no,no,no,90094,ITP,WHOI,MOSAiC,North
2019-10-09T18:00:25Z,1570644026,2019,18,0,282.7503,282.7503,84.819,136.6274,-999.00,-999.00,-999.0,no,no,no,90094,ITP,WHOI,MOSAiC,North
2019-10-09T19:00:28Z,1570647629,2019,19,0,282.792,282.792,84.8204,136.6167,-999.00,-999.00,-999.0,no,no,no,90094,ITP,WHOI,MOSAiC,North
2019-10-09T20:00:05Z,1570651206,2019,20,0,282.8334,282.8334,84.8216,136.6004,-999.00,-999.00,-999.0,no,no,no,90094,ITP,WHOI,MOSAiC,North
2019-10-09T21:00:25Z,1570654826,2019,21,0,282.8753,282.8753,84.8226,136.5766,-999.00,-999.00,-999.0,no,no,no,90094,ITP,WHOI,MOSAiC,North
2019-10-09T22:00:02Z,1570658403,2019,22,0,282.9167,282.9167,84.8236,136.5457,-999.00,-999.00,-999.0,no,no,no,90094,ITP,WHOI,MOSAiC,North
2019-10-09T23:00:31Z,1570662032,2019,23,0,282.9587,282.9587,84.8246,136.5084,-999.00,-999.00,-999.0,no,no,no,90094,ITP,WHOI,MOSAiC,North
2019-10-10T00:00:25Z,1570665626,2019,0,0,283.0003,283.0003,84.8259,136.4644,-999.00,-999.00,-999.0,no,no,no,90094,ITP,WHOI,MOSAiC,North
2019-10-10T01:00:28Z,1570669229,2019,1,0,283.042,283.042,84.8273,136.4205,-999.00,-999.00,-999.0,no,no,no,90094,ITP,WHOI,MOSAiC,North
2019-10-10T02:00:05Z,1570672806,2019,2,0,283.0834,283.0834,84.829,136.3756,-999.00,-999.00,-999.0,no,no,no,90094,ITP,WHOI,MOSAiC,North
2019-10-10T03:00:25Z,1570676426,2019,3,0,283.1253,283.1253,84.831,136.3276,-999.00,-999.00,-999.0,no,no,no,90094,ITP,WHOI,MOSAiC,North
2019-10-10T04:00:54Z,1570680055,2019,4,0,283.1673,283.1673,84.8331,136.2822,-999.00,-999.00,-999.0,no,no,no,90094,ITP,WHOI,MOSAiC,North
2019-10-10T05:00:05Z,1570683606,2019,5,0,283.2084,283.2084,84.8349,136.2426,-999.00,-999.00,-999.0,no,no,no,90094,ITP,WHOI,MOSAiC,North
2019-10-10T06:00:25Z,1570687226,2019,6,0,283.2503,283.2503,84.8359,136.2085,-999.00,-999.00,-999.0,no,no,no,90094,ITP,WHOI,MOSAiC,North
2019-10-10T07:00:02Z,1570690803,2019,7,0,283.2917,283.2917,84.8362,136.1788,-999.00,-999.00,-999.0,no,no,no,90094,ITP,WHOI,MOSAiC,North
2019-10-10T08:00:31Z,1570694432,2019,8,0,283.3337,283.3337,84.8358,136.1579,-999.00,-999.00,-999.0,no,no,no,90094,ITP,WHOI,MOSAiC,North
2019-10-10T09:00:25Z,1570698026,2019,9,0,283.3753,283.3753,84.8347,136.1352,-999.00,-999.00,-999.0,no,no,no,90094,ITP,WHOI,MOSAiC,North
2019-10-10T10:00:28Z,1570701629,2019,10,0,283.417,283.417,84.8333,136.1108,-999.00,-999.00,-999.0,no,no,no,90094,ITP,WHOI,MOSAiC,North
2019-10-10T11:00:31Z,1570705232,2019,11,0,283.4587,283.4587,84.8316,136.084,-999.00,-999.00,-999.0,no,no,no,90094,ITP,WHOI,MOSAiC,North
2019-10-10T12:00:08Z,1570708809,2019,12,0,283.5001,283.5001,84.8302,136.0566,-999.00,-999.00,-999.0,no,no,no,90094,ITP,WHOI,MOSAiC,North
2019-10-10T13:00:28Z,1570712429,2019,13,0,283.542,283.542,84.8288,136.0333,-999.00,-999.00,-999.0,no,no,no,90094,ITP,WHOI,MOSAiC,North
2019-10-10T14:00:05Z,1570716006,2019,14,0,283.5834,283.5834,84.8277,136.0154,-999.00,-999.00,-999.0,no,no,no,90094,ITP,WHOI,MOSAiC,North
2019-10-10T15:00:25Z,1570719626,2019,15,0,283.6253,283.6253,84.8268,136.0044,-999.00,-999.00,-999.0,no,no,no,90094,ITP,WHOI,MOSAiC,North
2019-10-10T16:00:28Z,1570723229,2019,16,0,283.667,283.667,84.826,136.0036,-999.00,-999.00,-999.0,no,no,no,90094,ITP,WHOI,MOSAiC,North
2019-10-10T17:00:31Z,1570726832,2019,17,0,283.7087,283.7087,84.8251,136.0111,-999.00,-999.00,-999.0,no,no,no,90094,ITP,WHOI,MOSAiC,North
2019-10-10T18:00:25Z,1570730426,2019,18,0,283.7503,283.7503,84.8239,136.0296,-999.00,-999.00,-999.0,no,no,no,90094,ITP,WHOI,MOSAiC,North
2019-10-10T19:01:20Z,1570734081,2019,19,1,283.7926,283.7926,84.822,136.0579,-999.00,-999.00,-999.0,no,no,no,90094,ITP,WHOI,MOSAiC,North
2019-10-10T20:00:31Z,1570737632,2019,20,0,283.8337,283.8337,84.8197,136.0885,-999.00,-999.00,-999.0,no,no,no,90094,ITP,WHOI,MOSAiC,North
2019-10-10T21:00:25Z,1570741226,2019,21,0,283.8753,283.8753,84.8166,136.1239,-999.00,-999.00,-999.0,no,no,no,90094,ITP,WHOI,MOSAiC,North
2019-10-10T22:01:55Z,1570744915,2019,22,1,283.918,283.918,84.8128,136.1615,-999.00,-999.00,-999.0,no,no,no,90094,ITP,WHOI,MOSAiC,North
2019-10-10T23:00:05Z,1570748406,2019,23,0,283.9584,283.9584,84.8087,136.194,-999.00,-999.00,-999.0,no,no,no,90094,ITP,WHOI,MOSAiC,North
2019-10-11T00:00:25Z,1570752026,2019,0,0,284.0003,284.0003,84.804,136.2264,-999.00,-999.00,-999.0,no,no,no,90094,ITP,WHOI,MOSAiC,North
2019-10-11T01:03:04Z,1570755784,2019,1,3,284.0438,284.0438,84.7992,136.2526,-999.00,-999.00,-999.0,no,no,no,90094,ITP,WHOI,MOSAiC,North
2019-10-11T02:00:31Z,1570759232,2019,2,0,284.0837,284.0837,84.7947,136.2731,-999.00,-999.00,-999.0,no,no,no,90094,ITP,WHOI,MOSAiC,North
2019-10-11T03:00:08Z,1570762809,2019,3,0,284.1251,284.1251,84.7904,136.2902,-999.00,-999.00,-999.0,no,no,no,90094,ITP,WHOI,MOSAiC,North
2019-10-11T04:02:29Z,1570766550,2019,4,2,284.1684,284.1684,84.7868,136.3065,-999.00,-999.00,-999.0,no,no,no,90094,ITP,WHOI,MOSAiC,North
2019-10-11T05:00:31Z,1570770032,2019,5,0,284.2087,284.2087,84.7843,136.3243,-999.00,-999.00,-999.0,no,no,no,90094,ITP,WHOI,MOSAiC,North
2019-10-11T06:00:25Z,1570773626,2019,6,0,284.2503,284.2503,84.7817,136.3479,-999.00,-999.00,-999.0,no,no,no,90094,ITP,WHOI,MOSAiC,North
2019-10-11T07:00:02Z,1570777203,2019,7,0,284.2917,284.2917,84.7774,136.3815,-999.00,-999.00,-999.0,no,no,no,90094,ITP,WHOI,MOSAiC,North
2019-10-11T08:00:05Z,1570780806,2019,8,0,284.3334,284.3334,84.772,136.4109,-999.00,-999.00,-999.0,no,no,no,90094,ITP,WHOI,MOSAiC,North
2019-10-11T09:00:25Z,1570784426,2019,9,0,284.3753,284.3753,84.7667,136.4305,-999.00,-999.00,-999.0,no,no,no,90094,ITP,WHOI,MOSAiC,North
2019-10-11T10:00:02Z,1570788003,2019,10,0,284.4167,284.4167,84.7621,136.4403,-999.00,-999.00,-999.0,no,no,no,90094,ITP,WHOI,MOSAiC,North
2019-10-11T11:00:31Z,1570791632,2019,11,0,284.4587,284.4587,84.7583,136.4436,-999.00,-999.00,-999.0,no,no,no,90094,ITP,WHOI,MOSAiC,North
2019-10-11T12:00:08Z,1570795209,2019,12,0,284.5001,284.5001,84.7552,136.4459,-999.00,-999.00,-999.0,no,no,no,90094,ITP,WHOI,MOSAiC,North
2019-10-11T13:00:28Z,1570798829,2019,13,0,284.542,284.542,84.7527,136.4504,-999.00,-999.00,-999.0,no,no,no,90094,ITP,WHOI,MOSAiC,North
2019-10-11T14:00:31Z,1570802432,2019,14,0,284.5837,284.5837,84.7509,136.4609,-999.00,-999.00,-999.0,no,no,no,90094,ITP,WHOI,MOSAiC,North
2019-10-11T15:00:08Z,1570806009,2019,15,0,284.6251,284.6251,84.7493,136.4784,-999.00,-999.00,-999.0,no,no,no,90094,ITP,WHOI,MOSAiC,North
2019-10-11T16:00:28Z,1570809629,2019,16,0,284.667,284.667,84.7482,136.5036,-999.00,-999.00,-999.0,no,no,no,90094,ITP,WHOI,MOSAiC,North
2019-10-11T17:00:05Z,1570813206,2019,17,0,284.7084,284.7084,84.7471,136.5298,-999.00,-999.00,-999.0,no,no,no,90094,ITP,WHOI,MOSAiC,North
2019-10-11T18:00:25Z,1570816826,2019,18,0,284.7503,284.7503,84.7456,136.559,-999.00,-999.00,-999.0,no,no,no,90094,ITP,WHOI,MOSAiC,North
2019-10-11T19:00:02Z,1570820403,2019,19,0,284.7917,284.7917,84.744,136.5836,-999.00,-999.00,-999.0,no,no,no,90094,ITP,WHOI,MOSAiC,North
2019-10-11T20:00:31Z,1570824032,2019,20,0,284.8337,284.8337,84.7424,136.6028,-999.00,-999.00,-999.0,no,no,no,90094,ITP,WHOI,MOSAiC,North
2019-10-11T21:00:08Z,1570827609,2019,21,0,284.8751,284.8751,84.741,136.6161,-999.00,-999.00,-999.0,no,no,no,90094,ITP,WHOI,MOSAiC,North
2019-10-11T22:00:46Z,1570831246,2019,22,0,284.9172,284.9172,84.7403,136.6209,-999.00,-999.00,-999.0,no,no,no,90094,ITP,WHOI,MOSAiC,North
2019-10-11T23:00:05Z,1570834806,2019,23,0,284.9584,284.9584,84.7404,136.6195,-999.00,-999.00,-999.0,no,no,no,90094,ITP,WHOI,MOSAiC,North
2019-10-12T00:00:25Z,1570838426,2019,0,0,285.0003,285.0003,84.7419,136.6108,-999.00,-999.00,-999.0,no,no,no,90094,ITP,WHOI,MOSAiC,North
2019-10-12T01:00:02Z,1570842003,2019,1,0,285.0417,285.0417,84.7444,136.6057,-999.00,-999.00,-999.0,no,no,no,90094,ITP,WHOI,MOSAiC,North
2019-10-12T02:00:31Z,1570845632,2019,2,0,285.0837,285.0837,84.7481,136.6065,-999.00,-999.00,-999.0,no,no,no,90094,ITP,WHOI,MOSAiC,North
2019-10-12T03:00:00Z,1570849200,2019,3,0,285.125,285.125,84.7522,136.6119,-999.00,-999.00,-999.0,no,no,no,90094,ITP,WHOI,MOSAiC,North
2019-10-12T04:00:54Z,1570852855,2019,4,0,285.1673,285.1673,84.7563,136.6169,-999.00,-999.00,-999.0,no,no,no,90094,ITP,WHOI,MOSAiC,North
2019-10-12T05:00:05Z,1570856406,2019,5,0,285.2084,285.2084,84.7601,136.618,-999.00,-999.00,-999.0,no,no,no,90094,ITP,WHOI,MOSAiC,North
2019-10-12T06:00:25Z,1570860026,2019,6,0,285.2503,285.2503,84.7633,136.6149,-999.00,-999.00,-999.0,no,no,no,90094,ITP,WHOI,MOSAiC,North
2019-10-12T07:02:12Z,1570863732,2019,7,2,285.2932,285.2932,84.7658,136.6055,-999.00,-999.00,-999.0,no,no,no,90094,ITP,WHOI,MOSAiC,North
2019-10-12T08:00:05Z,1570867206,2019,8,0,285.3334,285.3334,84.7674,136.5906,-999.00,-999.00,-999.0,no,no,no,90094,ITP,WHOI,MOSAiC,North
2019-10-12T09:00:25Z,1570870826,2019,9,0,285.3753,285.3753,84.7684,136.5676,-999.00,-999.00,-999.0,no,no,no,90094,ITP,WHOI,MOSAiC,North
2019-10-12T10:01:37Z,1570874498,2019,10,1,285.4178,285.4178,84.7691,136.5339,-999.00,-999.00,-999.0,no,no,no,90094,ITP,WHOI,MOSAiC,North
2019-10-12T11:00:31Z,1570878032,2019,11,0,285.4587,285.4587,84.7702,136.4925,-999.00,-999.00,-999.0,no,no,no,90094,ITP,WHOI,MOSAiC,North
2019-10-12T12:00:00Z,1570881600,2019,12,0,285.5,285.5,84.7715,136.4436,-999.00,-999.00,-999.0,no,no,no,90094,ITP,WHOI,MOSAiC,North
2019-10-12T13:04:13Z,1570885453,2019,13,4,285.5446,285.5446,84.773,136.3911,-999.00,-999.00,-999.0,no,no,no,90094,ITP,WHOI,MOSAiC,North
2019-10-12T14:00:31Z,1570888832,2019,14,0,285.5837,285.5837,84.7746,136.3478,-999.00,-999.00,-999.0,no,no,no,90094,ITP,WHOI,MOSAiC,North
2019-10-12T15:00:08Z,1570892409,2019,15,0,285.6251,285.6251,84.7762,136.3095,-999.00,-999.00,-999.0,no,no,no,90094,ITP,WHOI,MOSAiC,North
2019-10-12T16:01:55Z,1570896115,2019,16,1,285.668,285.668,84.7775,136.2783,-999.00,-999.00,-999.0,no,no,no,90094,ITP,WHOI,MOSAiC,North
2019-10-12T17:00:05Z,1570899606,2019,17,0,285.7084,285.7084,84.7781,136.2556,-999.00,-999.00,-999.0,no,no,no,90094,ITP,WHOI,MOSAiC,North
2019-10-12T18:00:25Z,1570903226,2019,18,0,285.7503,285.7503,84.7782,136.2337,-999.00,-999.00,-999.0,no,no,no,90094,ITP,WHOI,MOSAiC,North
2019-10-12T19:00:02Z,1570906803,2019,19,0,285.7917,285.7917,84.7776,136.2111,-999.00,-999.00,-999.0,no,no,no,90094,ITP,WHOI,MOSAiC,North
2019-10-12T20:00:31Z,1570910432,2019,20,0,285.8337,285.8337,84.7766,136.1828,-999.00,-999.00,-999.0,no,no,no,90094,ITP,WHOI,MOSAiC,North
2019-10-12T21:00:08Z,1570914009,2019,21,0,285.8751,285.8751,84.7755,136.1469,-999.00,-999.00,-999.0,no,no,no,90094,ITP,WHOI,MOSAiC,North
2019-10-12T22:00:28Z,1570917629,2019,22,0,285.917,285.917,84.7747,136.1013,-999.00,-999.00,-999.0,no,no,no,90094,ITP,WHOI,MOSAiC,North
2019-10-12T23:00:05Z,1570921206,2019,23,0,285.9584,285.9584,84.7741,136.0523,-999.00,-999.00,-999.0,no,no,no,90094,ITP,WHOI,MOSAiC,North
2019-10-13T00:00:08Z,1570924809,2019,0,0,286.0001,286.0001,84.774,136.0021,-999.00,-999.00,-999.0,no,no,no,90094,ITP,WHOI,MOSAiC,North
2019-10-13T01:00:28Z,1570928429,2019,1,0,286.042,286.042,84.7742,135.9529,-999.00,-999.00,-999.0,no,no,no,90094,ITP,WHOI,MOSAiC,North
2019-10-13T02:00:31Z,1570932032,2019,2,0,286.0837,286.0837,84.7744,135.9096,-999.00,-999.00,-999.0,no,no,no,90094,ITP,WHOI,MOSAiC,North
2019-10-13T03:00:00Z,1570935600,2019,3,0,286.125,286.125,84.7744,135.8738,-999.00,-999.00,-999.0,no,no,no,90094,ITP,WHOI,MOSAiC,North
2019-10-13T04:00:54Z,1570939255,2019,4,0,286.1673,286.1673,84.7737,135.8432,-999.00,-999.00,-999.0,no,no,no,90094,ITP,WHOI,MOSAiC,North
2019-10-13T05:00:05Z,1570942806,2019,5,0,286.2084,286.2084,84.7728,135.817,-999.00,-999.00,-999.0,no,no,no,90094,ITP,WHOI,MOSAiC,North
2019-10-13T06:00:25Z,1570946426,2019,6,0,286.2503,286.2503,84.7712,135.7918,-999.00,-999.00,-999.0,no,no,no,90094,ITP,WHOI,MOSAiC,North
2019-10-13T07:00:02Z,1570950003,2019,7,0,286.2917,286.2917,84.7694,135.7654,-999.00,-999.00,-999.0,no,no,no,90094,ITP,WHOI,MOSAiC,North
2019-10-13T08:00:05Z,1570953606,2019,8,0,286.3334,286.3334,84.7677,135.7368,-999.00,-999.00,-999.0,no,no,no,90094,ITP,WHOI,MOSAiC,North
2019-10-13T09:00:25Z,1570957226,2019,9,0,286.3753,286.3753,84.7656,135.7037,-999.00,-999.00,-999.0,no,no,no,90094,ITP,WHOI,MOSAiC,North
2019-10-13T10:00:02Z,1570960803,2019,10,0,286.4167,286.4167,84.7637,135.6702,-999.00,-999.00,-999.0,no,no,no,90094,ITP,WHOI,MOSAiC,North
2019-10-13T11:00:31Z,1570964432,2019,11,0,286.4587,286.4587,84.7619,135.6381,-999.00,-999.00,-999.0,no,no,no,90094,ITP,WHOI,MOSAiC,North
2019-10-13T12:00:00Z,1570968000,2019,12,0,286.5,286.5,84.7603,135.6124,-999.00,-999.00,-999.0,no,no,no,90094,ITP,WHOI,MOSAiC,North
2019-10-13T13:00:28Z,1570971629,2019,13,0,286.542,286.542,84.7587,135.5968,-999.00,-999.00,-999.0,no,no,no,90094,ITP,WHOI,MOSAiC,North
2019-10-13T14:00:31Z,1570975232,2019,14,0,286.5837,286.5837,84.7569,135.5894,-999.00,-999.00,-999.0,no,no,no,90094,ITP,WHOI,MOSAiC,North
2019-10-13T15:00:25Z,1570978826,2019,15,0,286.6253,286.6253,84.755,135.5918,-999.00,-999.00,-999.0,no,no,no,90094,ITP,WHOI,MOSAiC,North
2019-10-13T16:00:28Z,1570982429,2019,16,0,286.667,286.667,84.7522,135.6032,-999.00,-999.00,-999.0,no,no,no,90094,ITP,WHOI,MOSAiC,North
2019-10-13T17:00:05Z,1570986006,2019,17,0,286.7084,286.7084,84.7486,135.6199,-999.00,-999.00,-999.0,no,no,no,90094,ITP,WHOI,MOSAiC,North
2019-10-13T18:00:25Z,1570989626,2019,18,0,286.7503,286.7503,84.7437,135.6346,-999.00,-999.00,-999.0,no,no,no,90094,ITP,WHOI,MOSAiC,North
2019-10-13T19:02:55Z,1570993376,2019,19,2,286.7937,286.7937,84.7382,135.6407,-999.00,-999.00,-999.0,no,no,no,90094,ITP,WHOI,MOSAiC,North
2019-10-13T20:00:05Z,1570996806,2019,20,0,286.8334,286.8334,84.7332,135.6324,-999.00,-999.00,-999.0,no,no,no,90094,ITP,WHOI,MOSAiC,North
2019-10-13T21:00:25Z,1571000426,2019,21,0,286.8753,286.8753,84.7284,135.6132,-999.00,-999.00,-999.0,no,no,no,90094,ITP,WHOI,MOSAiC,North
2019-10-13T22:01:29Z,1571004089,2019,22,1,286.9177,286.9177,84.7236,135.5838,-999.00,-999.00,-999.0,no,no,no,90094,ITP,WHOI,MOSAiC,North
2019-10-13T23:00:31Z,1571007632,2019,23,0,286.9587,286.9587,84.7193,135.5465,-999.00,-999.00,-999.0,no,no,no,90094,ITP,WHOI,MOSAiC,North
2019-10-14T00:00:08Z,1571011209,2019,0,0,287.0001,287.0001,84.7159,135.5093,-999.00,-999.00,-999.0,no,no,no,90094,ITP,WHOI,MOSAiC,North
2019-10-14T01:02:55Z,1571014976,2019,1,2,287.0437,287.0437,84.7128,135.4735,-999.00,-999.00,-999.0,no,no,no,90094,ITP,WHOI,MOSAiC,North
2019-10-14T02:00:31Z,1571018432,2019,2,0,287.0837,287.0837,84.71,135.4478,-999.00,-999.00,-999.0,no,no,no,90094,ITP,WHOI,MOSAiC,North
2019-10-14T03:00:00Z,1571022000,2019,3,0,287.125,287.125,84.7072,135.4252,-999.00,-999.00,-999.0,no,no,no,90094,ITP,WHOI,MOSAiC,North
2019-10-14T04:02:29Z,1571025750,2019,4,2,287.1684,287.1684,84.7042,135.407,-999.00,-999.00,-999.0,no,no,no,90094,ITP,WHOI,MOSAiC,North
2019-10-14T05:00:05Z,1571029206,2019,5,0,287.2084,287.2084,84.7017,135.3927,-999.00,-999.00,-999.0,no,no,no,90094,ITP,WHOI,MOSAiC,North
2019-10-14T06:00:25Z,1571032826,2019,6,0,287.2503,287.2503,84.6989,135.3798,-999.00,-999.00,-999.0,no,no,no,90094,ITP,WHOI,MOSAiC,North
2019-10-14T07:00:02Z,1571036403,2019,7,0,287.2917,287.2917,84.6959,135.3674,-999.00,-999.00,-999.0,no,no,no,90094,ITP,WHOI,MOSAiC,North
2019-10-14T08:00:05Z,1571040006,2019,8,0,287.3334,287.3334,84.6928,135.3527,-999.00,-999.00,-999.0,no,no,no,90094,ITP,WHOI,MOSAiC,North
2019-10-14T09:00:25Z,1571043626,2019,9,0,287.3753,287.3753,84.6893,135.3358,-999.00,-999.00,-999.0,no,no,no,90094,ITP,WHOI,MOSAiC,North